| time (UTC) | temp C | wind direction | speed KPH | gust KPH | rain 1hr cm | rain 24hr cm | rain mn cm | humidity % | barometer mb |
| 20260904164704 | 22 | 282 | 6.4 | 14.5 | 0.00 | 0.08 | 0.00 | 70 | 1009.1 |
| 20260904164205 | 22 | 264 | 6.4 | 19.3 | 0.00 | 0.08 | 0.00 | 71 | 1009.2 |
| 20260904162204 | 22 | 268 | 4.8 | 12.9 | 0.00 | 0.08 | 0.00 | 75 | 1009.3 |
| 20260904160704 | 22 | 277 | 8.0 | 14.5 | 0.00 | 0.08 | 0.00 | 74 | 1009.4 |
| 20260904160205 | 22 | 275 | 8.0 | 12.9 | 0.00 | 0.08 | 0.00 | 74 | 1009.5 |
| 20260904154704 | 23 | 336 | 3.2 | 8.0 | 0.00 | 0.08 | 0.00 | 73 | 1009.5 |
| 20260904154204 | 22 | 286 | 4.8 | 9.7 | 0.00 | 0.08 | 0.00 | 74 | 1009.6 |
| 20260904152704 | 22 | 269 | 3.2 | 8.0 | 0.00 | 0.08 | 0.00 | 76 | 1009.6 |
| 20260904150204 | 21 | 286 | 4.8 | 9.7 | 0.00 | 0.08 | 0.00 | 80 | 1009.7 |
| 20260904144704 | 20 | 282 | 3.2 | 4.8 | 0.00 | 0.08 | 0.00 | 84 | 1009.7 |
| 20260904144204 | 20 | 276 | 4.8 | 9.7 | 0.00 | 0.08 | 0.00 | 85 | 1009.8 |
| 20260904142705 | 20 | 282 | 4.8 | 9.7 | 0.00 | 0.08 | 0.00 | 86 | 1009.9 |
| 20260904142204 | 19 | 295 | 4.8 | 11.3 | 0.00 | 0.08 | 0.00 | 86 | 1009.9 |
| 20260904140704 | 19 | 291 | 4.8 | 9.7 | 0.00 | 0.08 | 0.00 | 87 | 1009.9 |
| 20260904140204 | 19 | 273 | 4.8 | 9.7 | 0.00 | 0.08 | 0.00 | 87 | 1009.9 |
| 20260904132704 | 18 | 266 | 4.8 | 4.8 | 0.00 | 0.08 | 0.00 | 95 | 1009.7 |
| 20260904132204 | 17 | 277 | 1.6 | 8.0 | 0.00 | 0.08 | 0.00 | 96 | 1009.7 |
| 20260904130704 | 17 | 288 | 3.2 | 4.8 | 0.00 | 0.08 | 0.00 | 97 | 1009.8 |
| 20260904130204 | 17 | 290 | 1.6 | 4.8 | 0.00 | 0.08 | 0.00 | 97 | 1009.8 |
| 20260904124704 | 17 | 305 | 4.8 | 4.8 | 0.00 | 0.08 | 0.00 | 97 | 1009.7 |
| 20260904124204 | 17 | 59 | 3.2 | 4.8 | 0.00 | 0.08 | 0.00 | 97 | 1009.7 |
| 20260904122704 | 16 | 66 | 1.6 | 3.2 | 0.00 | 0.08 | 0.00 | 97 | 1009.7 |
| 20260904120704 | 16 | 67 | 0.0 | 0.0 | 0.00 | 0.08 | 0.00 | 97 | 1009.7 |
| 20260904120204 | 16 | 67 | 0.0 | 3.2 | 0.00 | 0.08 | 0.00 | 96 | 1009.7 |
| 20260904114704 | 16 | 67 | 0.0 | 0.0 | 0.00 | 0.08 | 0.00 | 97 | 1009.7 |
| 20260904114204 | 15 | 67 | 0.0 | 3.2 | 0.00 | 0.08 | 0.00 | 96 | 1009.6 |
| 20260904112704 | 15 | 67 | 1.6 | 1.6 | 0.00 | 0.08 | 0.00 | 96 | 1009.5 |
| 20260904110704 | 15 | 67 | 0.0 | 3.2 | 0.00 | 0.08 | 0.00 | 96 | 1009.2 |
| 20260904110204 | 15 | 66 | 1.6 | 3.2 | 0.00 | 0.08 | 0.00 | 96 | 1009.2 |
| 20260904104704 | 15 | 66 | 0.0 | 0.0 | 0.00 | 0.08 | 0.00 | 96 | 1009.2 |
| 20260904104204 | 15 | 66 | 0.0 | 0.0 | 0.00 | 0.08 | 0.00 | 96 | 1009.1 |
| 20260904102704 | 15 | 66 | 0.0 | 0.0 | 0.00 | 0.08 | 0.00 | 96 | 1009.0 |
| 20260904102204 | 15 | 66 | 0.0 | 1.6 | 0.00 | 0.08 | 0.00 | 96 | 1009.1 |
| 20260904100704 | 14 | 66 | 0.0 | 0.0 | 0.00 | 0.10 | 0.00 | 96 | 1009.0 |
| 20260904100203 | 14 | 66 | 0.0 | 0.0 | 0.00 | 0.10 | 0.00 | 96 | 1009.0 |
| 20260904094704 | 14 | 66 | 0.0 | 0.0 | 0.00 | 0.10 | 0.00 | 96 | 1008.8 |
| 20260904092703 | 14 | 66 | 0.0 | 0.0 | 0.00 | 0.10 | 0.00 | 96 | 1008.7 |
| 20260904090704 | 14 | 66 | 0.0 | 1.6 | 0.00 | 0.10 | 0.00 | 96 | 1008.5 |
| 20260904084703 | 14 | 66 | 0.0 | 0.0 | 0.00 | 0.10 | 0.00 | 96 | 1008.6 |
| 20260904084203 | 14 | 66 | 0.0 | 0.0 | 0.00 | 0.10 | 0.00 | 96 | 1008.6 |
| 20260904082703 | 15 | 66 | 0.0 | 0.0 | 0.00 | 0.10 | 0.00 | 96 | 1008.6 |
| 20260904082203 | 15 | 66 | 0.0 | 1.6 | 0.00 | 0.13 | 0.00 | 96 | 1008.7 |
| 20260904080704 | 15 | 66 | 0.0 | 0.0 | 0.00 | 0.15 | 0.00 | 96 | 1008.7 |
| 20260904080203 | 15 | 66 | 1.6 | 3.2 | 0.00 | 0.15 | 0.00 | 96 | 1008.7 |
| 20260904074706 | 15 | 66 | 0.0 | 1.6 | 0.00 | 0.15 | 0.00 | 96 | 1008.5 |
| 20260904074206 | 15 | 66 | 1.6 | 3.2 | 0.00 | 0.15 | 0.00 | 96 | 1008.5 |
| 20260904072205 | 15 | 64 | 0.0 | 1.6 | 0.00 | 0.15 | 0.00 | 95 | 1008.4 |
| 20260904070705 | 15 | 64 | 0.0 | 0.0 | 0.00 | 0.15 | 0.00 | 96 | 1008.4 |
| 20260904062705 | 16 | 64 | 0.0 | 3.2 | 0.00 | 0.15 | 0.00 | 95 | 1008.5 |
| 20260904062206 | 16 | 64 | 1.6 | 3.2 | 0.00 | 0.15 | 0.00 | 96 | 1008.5 |
| 20260904060705 | 16 | 63 | 0.0 | 0.0 | 0.00 | 0.15 | 0.00 | 95 | 1008.7 |
| 20260904060205 | 16 | 63 | 0.0 | 1.6 | 0.00 | 0.15 | 0.00 | 95 | 1008.7 |
| 20260904054205 | 16 | 63 | 0.0 | 1.6 | 0.00 | 0.15 | 0.00 | 95 | 1008.8 |
| 20260904052205 | 16 | 63 | 1.6 | 1.6 | 0.00 | 0.15 | 0.00 | 95 | 1008.9 |
| 20260904050205 | 16 | 63 | 0.0 | 1.6 | 0.00 | 0.20 | 0.00 | 95 | 1009.0 |
| 20260904044705 | 16 | 63 | 0.0 | 1.6 | 0.00 | 0.23 | 0.00 | 95 | 1009.1 |
| 20260904042705 | 16 | 63 | 0.0 | 3.2 | 0.00 | 0.25 | 0.00 | 95 | 1009.1 |
| 20260904042205 | 16 | 63 | 1.6 | 4.8 | 0.00 | 0.25 | 0.00 | 95 | 1009.1 |
| 20260904040205 | 16 | 55 | 0.0 | 3.2 | 0.00 | 0.28 | 0.00 | 95 | 1009.4 |
| 20260904034205 | 16 | 55 | 0.0 | 3.2 | 0.00 | 0.28 | 0.28 | 94 | 1009.4 |
| 20260904032705 | 16 | 55 | 1.6 | 3.2 | 0.00 | 0.33 | 0.28 | 94 | 1009.4 |
| 20260904032205 | 16 | 55 | 1.6 | 1.6 | 0.00 | 0.33 | 0.28 | 94 | 1009.3 |
| 20260904030705 | 16 | 55 | 0.0 | 0.0 | 0.00 | 0.38 | 0.28 | 94 | 1009.3 |
| 20260904030205 | 17 | 55 | 0.0 | 3.2 | 0.00 | 0.41 | 0.28 | 94 | 1009.3 |
| 20260904024705 | 17 | 55 | 0.0 | 1.6 | 0.00 | 0.43 | 0.28 | 94 | 1009.3 |
| 20260904024205 | 17 | 55 | 0.0 | 1.6 | 0.00 | 0.46 | 0.28 | 93 | 1009.4 |
| 20260904022705 | 17 | 55 | 1.6 | 1.6 | 0.00 | 0.48 | 0.28 | 93 | 1009.5 |
| 20260904020705 | 17 | 55 | 1.6 | 3.2 | 0.00 | 0.51 | 0.28 | 93 | 1009.5 |
| 20260904014205 | 18 | 28 | 1.6 | 8.0 | 0.00 | 0.56 | 0.28 | 94 | 1009.6 |
| 20260904012705 | 18 | 47 | 3.2 | 4.8 | 0.00 | 0.58 | 0.28 | 94 | 1009.5 |
| 20260904012205 | 18 | 30 | 3.2 | 4.8 | 0.00 | 0.58 | 0.28 | 95 | 1009.4 |
| 20260904010705 | 18 | 47 | 0.0 | 0.0 | 0.00 | 0.58 | 0.28 | 94 | 1008.8 |
| 20260904010205 | 18 | 47 | 0.0 | 3.2 | 0.00 | 0.58 | 0.28 | 94 | 1008.7 |
| 20260904004705 | 18 | 47 | 1.6 | 1.6 | 0.03 | 0.58 | 0.28 | 94 | 1008.7 |
| 20260904004207 | 18 | 47 | 0.0 | 4.8 | 0.03 | 0.58 | 0.28 | 94 | 1008.7 |
| 20260904002705 | 18 | 45 | 3.2 | 4.8 | 0.03 | 0.61 | 0.28 | 94 | 1008.6 |
| 20260904002205 | 18 | 37 | 4.8 | 4.8 | 0.03 | 0.61 | 0.28 | 94 | 1008.7 |
| 20260904000705 | 18 | 319 | 0.0 | 0.0 | 0.03 | 0.61 | 0.28 | 93 | 1008.3 |
| 20260904000205 | 18 | 319 | 0.0 | 1.6 | 0.03 | 0.61 | 0.28 | 93 | 1008.3 |
| 20260903234705 | 19 | 319 | 0.0 | 1.6 | 0.00 | 0.58 | 0.25 | 92 | 1008.1 |
| 20260903234205 | 19 | 319 | 0.0 | 1.6 | 0.00 | 0.58 | 0.25 | 92 | 1008.2 |
| 20260903232705 | 20 | 319 | 0.0 | 0.0 | 0.00 | 0.58 | 0.25 | 91 | 1008.0 |
| 20260903232205 | 20 | 319 | 0.0 | 1.6 | 0.03 | 0.58 | 0.25 | 91 | 1008.0 |
| 20260903230704 | 20 | 319 | 1.6 | 1.6 | 0.05 | 0.58 | 0.25 | 90 | 1008.2 |
| 20260903230204 | 20 | 319 | 0.0 | 1.6 | 0.05 | 0.58 | 0.25 | 90 | 1008.3 |
| 20260903224204 | 20 | 319 | 0.0 | 4.8 | 0.05 | 0.58 | 0.25 | 88 | 1008.5 |
| 20260903222205 | 21 | 339 | 3.2 | 20.9 | 0.05 | 0.56 | 0.23 | 85 | 1008.6 |
| 20260903220705 | 22 | 191 | 1.6 | 4.8 | 0.00 | 0.51 | 0.20 | 81 | 1008.2 |
| 20260903220204 | 23 | 170 | 3.2 | 4.8 | 0.00 | 0.51 | 0.20 | 82 | 1008.2 |
| 20260903214705 | 23 | 288 | 1.6 | 4.8 | 0.00 | 0.51 | 0.20 | 82 | 1008.0 |
| 20260903212705 | 23 | 258 | 3.2 | 4.8 | 0.00 | 0.51 | 0.20 | 76 | 1008.0 |
| 20260903212204 | 23 | 255 | 3.2 | 4.8 | 0.00 | 0.51 | 0.20 | 75 | 1008.0 |
| 20260903210205 | 24 | 250 | 1.6 | 8.0 | 0.00 | 0.51 | 0.20 | 75 | 1007.9 |
| 20260903204705 | 25 | 233 | 3.2 | 8.0 | 0.00 | 0.51 | 0.20 | 70 | 1008.0 |
| 20260903204205 | 25 | 170 | 1.6 | 11.3 | 0.00 | 0.51 | 0.20 | 70 | 1008.2 |
| 20260903200705 | 25 | 267 | 4.8 | 11.3 | 0.00 | 0.51 | 0.20 | 69 | 1008.2 |
| 20260903194204 | 25 | 271 | 4.8 | 11.3 | 0.00 | 0.51 | 0.20 | 71 | 1008.3 |
| 20260903192705 | 25 | 252 | 8.0 | 16.1 | 0.00 | 0.51 | 0.20 | 70 | 1008.4 |
| 20260903192204 | 25 | 255 | 6.4 | 11.3 | 0.00 | 0.51 | 0.20 | 71 | 1008.4 |
| 20260903190705 | 25 | 255 | 4.8 | 12.9 | 0.00 | 0.51 | 0.20 | 70 | 1008.4 |
| 20260903190205 | 25 | 167 | 1.6 | 11.3 | 0.00 | 0.51 | 0.20 | 73 | 1008.4 |
| 20260903184704 | 25 | 183 | 3.2 | 4.8 | 0.00 | 0.51 | 0.20 | 70 | 1008.6 |
| 20260903184205 | 26 | 195 | 3.2 | 11.3 | 0.00 | 0.51 | 0.20 | 70 | 1008.6 |
| 20260903182704 | 25 | 174 | 3.2 | 9.7 | 0.00 | 0.51 | 0.20 | 69 | 1008.6 |
| 20260903182206 | 25 | 244 | 1.6 | 9.7 | 0.00 | 0.51 | 0.20 | 70 | 1008.5 |
| 20260903180704 | 25 | 232 | 1.6 | 4.8 | 0.00 | 0.51 | 0.20 | 72 | 1008.8 |
| 20260903180205 | 25 | 238 | 1.6 | 9.7 | 0.00 | 0.51 | 0.20 | 72 | 1008.8 |
| 20260903174704 | 25 | 258 | 3.2 | 8.0 | 0.00 | 0.51 | 0.20 | 73 | 1008.9 |
| 20260903172705 | 23 | 211 | 1.6 | 4.8 | 0.00 | 0.51 | 0.20 | 76 | 1009.1 |
| 20260903172205 | 23 | 225 | 3.2 | 9.7 | 0.00 | 0.51 | 0.20 | 76 | 1009.2 |